This is the latest recevied weather packets stored in our database for station/object OE5RBO. If no packets are shown the sender has not sent any weather packets the latest 10 day(s).
| Time | Temp. | Humidity | Pressure | Rain* | Wind** | Luminosity | Snow |
|---|---|---|---|---|---|---|---|
| 1787562963 | 22.22° C | 66% | 1020.3 hPa | 0 mm | - | - | - |
| 1787562363 | 22.78° C | 68% | 1020.4 hPa | 0 mm | - | - | - |
| 1787561762 | 22.78° C | 69% | 1020.4 hPa | 0 mm | - | - | - |
| 1787561162 | 22.22° C | 70% | 1020.4 hPa | 0 mm | - | - | - |
| 1787560562 | 22.22° C | 72% | 1020.5 hPa | 0 mm | - | - | - |
| 1787559961 | 21.11° C | 72% | 1020.6 hPa | 0 mm | - | - | - |
| 1787559361 | 21.67° C | 71% | 1020.6 hPa | 0 mm | - | - | - |
| 1787558761 | 21.67° C | 68% | 1020.6 hPa | 0 mm | - | - | - |
| 1787558160 | 21.67° C | 70% | 1020.7 hPa | 0 mm | - | - | - |
| 1787557560 | 21.11° C | 70% | 1020.7 hPa | 0 mm | - | - | - |
| 1787556960 | 20.56° C | 74% | 1020.7 hPa | 0 mm | - | - | - |
| 1787556359 | 20.56° C | 73% | 1020.9 hPa | 0 mm | - | - | - |
| 1787555158 | 18.89° C | 78% | 1020.8 hPa | 0 mm | - | - | - |
| 1787554558 | 18.33° C | 79% | 1020.9 hPa | 0 mm | - | - | - |
| 1787553958 | 18.89° C | 79% | 1020.9 hPa | 0 mm | - | - | - |
| 1787553357 | 18.33° C | 80% | 1020.8 hPa | 0 mm | - | - | - |
| 1787552758 | 17.22° C | 84% | 1020.9 hPa | 0 mm | - | - | - |
| 1787552157 | 15.56° C | 85% | 1020.9 hPa | 0 mm | - | - | - |
| 1787551556 | 15° C | 92% | 1021 hPa | 0 mm | - | - | - |
| 1787550956 | 13.33° C | 96% | 1020.9 hPa | 0 mm | - | - | - |
| 1787550356 | 12.78° C | 99% | 1020.9 hPa | 0 mm | - | - | - |
| 1787548554 | 10° C | 99% | 1021 hPa | 0 mm | - | - | - |
| 1787547954 | 10° C | 99% | 1021 hPa | 0 mm | - | - | - |
| 1787547354 | 10° C | 99% | 1020.9 hPa | 0 mm | - | - | - |
| 1787546754 | 10° C | 99% | 1021 hPa | 0 mm | - | - | - |
* Rain since midnight (hover to see other rain measurements)
** Current wind speed in m/s (hover to see current wind gust speed)